Overview Statistics Trail Chart Weather Telemetry Raw packets
 

This is the latest recevied weather packets stored in our database for station/object SA7AHC. If no packets are shown the sender has not sent any weather packets the latest 10 day(s).

<< 47 48 49 50 51 52 53 >>
Time Temp. Humidity Pressure Rain* Wind** Luminosity Snow
1787906101 16.67° C 84% 1019.1 hPa 0 mm - 167 W/m² -
1787905501 16.67° C 84% 1019.1 hPa 0 mm - 146 W/m² -
1787904884 16.67° C 85% 1019.2 hPa 0 mm - 163 W/m² -
1787904287 16.67° C 86% 1019.2 hPa 0 mm - 162 W/m² -
1787903684 16.11° C 88% 1019.6 hPa 0 mm - 128 W/m² -
1787903081 15.56° C 91% 1019.5 hPa 0 mm - 151 W/m² -
1787902481 15.56° C 93% 1019.1 hPa 0 mm - 139 W/m² -
1787901871 15.56° C 95% 1019.5 hPa 0 mm - 125 W/m² -
1787901272 15° C 96% 1019.5 hPa 0 mm - 114 W/m² -
1787900670 14.44° C 97% 1019.4 hPa 0 mm - 125 W/m² -
1787900070 14.44° C 97% 1019.7 hPa 0 mm - 102 W/m² -
1787899467 14.44° C 97% 1019.7 hPa 0 mm - 84 W/m² -
1787898862 14.44° C 98% 1019.9 hPa 0 mm - 79 W/m² -
1787898262 13.89° C 98% 1019.5 hPa 0 mm - 72 W/m² -
1787897657 13.89° C 98% 1019.4 hPa 0 mm - 86 W/m² -
1787897062 13.89° C 98% 1019.7 hPa 0 mm - 74 W/m² -
1787896458 13.33° C 98% 1019.9 hPa 0 mm - 70 W/m² -
1787895848 13.33° C 98% 1019.9 hPa 0 mm - 69 W/m² -
1787895247 13.33° C 98% 1019.9 hPa 0 mm - 63 W/m² -
1787894647 13.33° C 98% 1020 hPa 0 mm - 53 W/m² -
1787894045 13.33° C 98% 1019.9 hPa 0 mm - 51 W/m² -
1787893445 13.33° C 98% 1019.9 hPa 0 mm - 47 W/m² -
1787892846 12.78° C 98% 1020.3 hPa 0 mm - 40 W/m² -
1787892244 12.78° C 98% 1020.3 hPa 0 mm - 33 W/m² -
1787891643 12.78° C 98% 1020.5 hPa 0 mm - 30 W/m² -

* Rain latest hour (hover to see other rain measurements)
** Current wind speed in m/s (hover to see current wind gust speed)